Home > Weather > Augsburg > Past weeks

Flag for Germany Weather for the Past 2 Weeks in Augsburg, Bavaria, Germany

Now
43 °F

Light rain. Partly cloudy.


Feels Like: 38 °F
Forecast: 38 / 52 °F
Wind: 8 mph from West

Location: Augsburg Airport

Current Time: Feb 8, 2016 at 12:00:25 AM

Latest Report: Feb 7, 2016 at 8:50 PM


Visibility: 4 mi

Pressure: 29.86 "Hg

Humidity: 76%

Dew point: 36 °F

Location of AugsburgLocation

Historic Weather in Augsburg — Graph

°F

Augsburg Temperature Yesterday

Maximum temperature yesterday: 45 °F (at 12:20 PM)
Minimum temperature yesterday: 30 °F (at 8:50 AM)
Average temperature yesterday: 42 °F

High & Low Weather Summary for the Past Weeks

 TemperatureHumidityPressure
High57 °F (Jan 26, 2:20 PM)100% (Jan 23, 8:20 PM)30.63 "Hg (Jan 23, 8:20 PM)
Low28 °F (Jan 24, 8:50 AM)44% (Jan 26, 2:20 PM)29.62 "Hg (Feb 7, 11:20 AM)
Average44 °F77%30.20 "Hg
* Reported Jan 23 8:20 PM — Feb 7 8:50 PM, Augsburg, Weather by CustomWeather, © 2016

Note: Actual official high and low records may vary slightly from our data, if they occured in-between our weather recording intervals... More about our weather records

Advertising

Augsburg Weather History for the Previous 24 Hours

 ConditionsComfort  
Time TempWeatherWind HumidityBarometerVisibility
8:50 PM
Sun, Feb 7
43 °FLight rain. Partly cloudy.8 mph76%29.86 "Hg4 mi
8:20 PM43 °FLight rain. Passing clouds.7 mph76%29.86 "Hg4 mi
7:50 PM43 °FPassing clouds.8 mph76%29.83 "HgN/A
7:20 PM43 °FPassing clouds.6 mph76%29.83 "HgN/A
6:50 PM43 °FLight rain. Passing clouds.7 mph76%29.80 "HgN/A
6:20 PM43 °FLight rain. Passing clouds.7 mph76%29.80 "HgN/A
5:50 PM45 °FPartly cloudy.8 mph71%29.77 "HgN/A
5:20 PM45 °FPartly sunny.7 mph71%29.77 "HgN/A
4:50 PM45 °FSunny.8 mph71%29.74 "Hg10 mi
4:20 PM45 °FSunny.10 mph71%29.74 "Hg10 mi
3:50 PM45 °FSunny.7 mph66%29.71 "Hg10 mi
3:20 PM45 °FPassing clouds.6 mph76%29.68 "HgN/A
2:50 PM45 °FSunny.3 mph76%29.65 "Hg10 mi
2:20 PM45 °FPassing clouds.5 mph71%29.65 "HgN/A
1:50 PM45 °FSunny.7 mph76%29.62 "Hg10 mi
1:20 PM45 °FSunny.7 mph76%29.62 "Hg10 mi
12:50 PM45 °FSunny.3 mph71%29.62 "Hg10 mi
12:20 PM45 °FPassing clouds.3 mph71%29.62 "HgN/A
11:50 AM43 °FPassing clouds.3 mph76%29.62 "HgN/A
11:20 AM41 °FPassing clouds.3 mph76%29.62 "HgN/A
10:50 AM39 °FSunny.2 mph81%29.65 "Hg10 mi
10:20 AM37 °FSunny.1 mph87%29.65 "Hg10 mi
9:50 AM36 °FSunny.1 mph100%29.68 "Hg10 mi
9:20 AM32 °FSunny.1 mph100%29.68 "Hg10 mi
8:50 AM30 °FSunny.1 mph100%29.68 "Hg10 mi
Weather by CustomWeather, © 2016

See weather overviewHow to use our weather pages